Tracking 27380 objects as of 5-Jun-2023
HD Live streaming from Space Station
objects crossing your sky now

STARLINK-1227

Track STARLINK-1227 now!
10-day predictions
STARLINK-1227 is classified as:


NORAD ID: 45230
Int'l Code: 2020-012BE
Perigee: 553.7 km
Apogee: 555.0 km
Inclination: 53.1 °
Period: 95.6 minutes
Semi major axis: 6925 km
RCS: Unknown
Launch date: February 17, 2020
Source: United States (US)
Launch site: AIR FORCE EASTERN TEST RANGE (AFETR)
Your satellite tracking list
Your tracking list is empty




NASA's NSSDC Master Catalog

Two Line Element Set (TLE):
1 45230U 20012BE  23155.89102845  .00010452  00000-0  71968-3 0  9998
2 45230  53.0517 215.2889 0000957  83.9792 276.1306 15.06392609183368
Source of the keplerian elements: AFSPC